User: anonymous   Login
Location: Maiden
(35.5760°N, 81.2120°W)
Time: 03:08:03
(UTC-04:00)
Language:

Cosmos 2151 - Orbit

View from above orbital plane
View from above orbital plane
View from above satellite
View from above satellite

Ground track
Ground track

The orbit data is extracted from the following two-line orbital elements,

1 21422U 91042A   17174.77249733 +.00000154 +00000-0 +12760-4 0  9999
2 21422 082.5008 240.1788 0012634 272.7799 087.1975 14.91828479388408
Epoch (UTC): 23 June 2017 18:32:23
Eccentricity: 0.0012634
inclination: 82.5008°
perigee height: 583 km
apogee height: 601 km
right ascension of ascending node: 240.1788°
argument of perigee: 272.7799°
revolutions per day: 14.91828479
mean anomaly at epoch: 87.1975°
orbit number at epoch: 38840

The dashed part of the orbit path shows where the satellite is in the earth's shadow,  

DLR